Home > Weather > Cumberland County > Past weeks

Flag for Canada Past Weather in Cumberland County, Nova Scotia, Canada — Yesterday and Last 2 Weeks

Now
66 °F

Mild.


Feels Like: 66 °F
Forecast: 65 / 79 °F
Wind: 1 mph from West

Location: Kentville

Current Time: Jul 23, 2016 at 6:23:48 AM

Latest Report: Jul 23, 2016 at 6:00 AM


Visibility: N/A

Pressure: 29.68 "Hg

Humidity: 93%

Dew Point: 64 °F

Location of Cumberland CountyLocation

Past Weather in Cumberland County — Graph

°F

Cumberland County Temperature Yesterday

Maximum temperature yesterday: 84 °F (at 1:00 PM)
Minimum temperature yesterday: 62 °F (at 6:00 AM)
Average temperature yesterday: 73 °F

High & Low Weather Summary for the Past Weeks

 TemperatureHumidityPressure
High87 °F (Jul 15, 5:00 PM)98% (Jul 17, 8:00 AM)30.17 "Hg (Jul 17, 8:00 AM)
Low51 °F (Jul 8, 6:00 AM)34% (Jul 12, 5:00 PM)29.65 "Hg (Jul 23, 3:00 AM)
Average67 °F73%29.93 "Hg
* Reported Jul 8 5:00 AM — Jul 23 5:00 AM, Cumberland County, Weather by CustomWeather, © 2016

Note: Actual official high and low records may vary slightly from our data, if they occured in-between our weather recording intervals... More about our weather records

Advertising

Cumberland County Weather History for the Previous 24 Hours

Scroll right to see more
 ConditionsComfort  
Time TempWeatherWind HumidityBarometerVisibility
5:00 AM
Sat, Jul 23
67 °FMild.2 mph90%29.65 "HgN/A
4:00 AM69 °FMild.7 mph88%29.65 "HgN/A
3:00 AM70 °FMild.9 mph87%29.65 "HgN/A
2:00 AM70 °FMild.7 mph87%29.66 "HgN/A
1:00 AM71 °FMild.3 mph82%29.70 "HgN/A
12:00 AM72 °FMild.6 mph76%29.71 "HgN/A
11:00 PM
Fri, Jul 22
71 °FMild.6 mph79%29.71 "HgN/A
10:00 PM74 °FMild.7 mph71%29.70 "HgN/A
9:00 PM77 °FMild.6 mph63%29.69 "HgN/A
8:00 PM80 °FWarm.10 mph56%29.68 "HgN/A
7:00 PM81 °FWarm.8 mph54%29.68 "HgN/A
6:00 PM83 °FWarm.8 mph50%29.69 "HgN/A
5:00 PM83 °FWarm.8 mph47%29.72 "HgN/A
4:00 PM82 °FWarm.8 mph47%29.72 "HgN/A
3:00 PM80 °FWarm.6 mph59%29.73 "HgN/A
2:00 PM81 °FWarm.9 mph49%29.74 "HgN/A
1:00 PM84 °FWarm.12 mph45%29.75 "HgN/A
12:00 PM78 °FWarm.7 mph53%29.76 "HgN/A
11:00 AM75 °FMild.8 mph65%29.79 "HgN/A
10:00 AM72 °FMild.9 mph70%29.83 "HgN/A
9:00 AM69 °FMild.8 mph76%29.85 "HgN/A
8:00 AM65 °FMild.6 mph78%29.86 "HgN/A
7:00 AM63 °FMild.5 mph82%29.87 "HgN/A
6:00 AM62 °FCool.6 mph83%29.88 "HgN/A
Weather by CustomWeather, © 2016

See weather overviewHow to use our weather pages